CW4884 Weather Reports


time (UTC)temp
C
wind
direction
speed
KPH
gust
KPH
rain 1hr
cm
rain 24hr
cm
rain mn
cm
humidity
%
barometer
mb
20260503020054 21 263 1.6 0.0 0.00 0.00 0.00 33 1009.2
20260503014554 21 263 1.6 0.0 0.00 0.00 0.00 31 1009.2
20260503013052 21 263 0.0 0.0 0.00 0.00 0.00 30 1009.3
20260503011557 21 263 1.6 0.0 0.00 0.00 0.00 31 1009.4
20260503010015 22 265 1.6 0.0 0.00 0.00 0.00 28 1009.4
20260503004528 22 296 3.2 0.0 0.00 0.00 0.00 30 1009.5
20260503003036 22 279 3.2 0.0 0.00 0.00 0.00 27 1009.7
20260503001537 22 277 1.6 0.0 0.00 0.00 0.00 27 1009.7
20260503000100 23 247 1.6 0.0 0.00 0.00 0.00 26 1009.6
20260502234611 23 245 3.2 0.0 0.00 0.00 0.00 27 1009.8
20260502233106 23 261 3.2 0.0 0.00 0.00 0.00 28 1009.9
20260502231554 23 248 3.2 0.0 0.00 0.00 0.00 26 1010.1
20260502230100 23 275 3.2 0.0 0.00 0.00 0.00 27 1010.3
20260502224510 23 269 3.2 0.0 0.00 0.00 0.00 31 1010.4
20260502223008 23 262 3.2 0.0 0.00 0.00 0.00 27 1010.6
20260502221510 23 323 1.6 0.0 0.00 0.00 0.00 28 1010.9
20260502220005 23 277 1.6 0.0 0.00 0.00 0.00 27 1010.9
20260502214502 23 276 3.2 0.0 0.00 0.00 0.00 26 1011.3
20260502213019 23 271 1.6 0.0 0.00 0.00 0.00 30 1011.5
20260502211518 22 286 4.8 0.0 0.00 0.00 0.00 33 1011.6
20260502210008 22 297 4.8 0.0 0.00 0.00 0.00 29 1011.9
20260502204512 22 263 1.6 0.0 0.00 0.00 0.00 31 1012.1
20260502203039 22 260 3.2 0.0 0.00 0.00 0.00 36 1012.2
20260502201536 22 188 3.2 0.0 0.00 0.00 0.00 35 1012.5
20260502200035 21 188 1.6 0.0 0.00 0.00 0.00 38 1012.6
20260502194534 21 188 1.6 0.0 0.00 0.00 0.00 40 1012.8
20260502193030 20 189 1.6 0.0 0.00 0.00 0.00 45 1013.0
20260502191526 20 189 1.6 0.0 0.00 0.00 0.00 45 1013.3
20260502190048 18 189 1.6 0.0 0.00 0.00 0.00 41 1013.6
20260502184546 18 184 3.2 0.0 0.00 0.00 0.00 46 1013.9
20260502183030 18 178 3.2 0.0 0.00 0.00 0.00 52 1014.0
20260502181529 17 178 3.2 0.0 0.00 0.00 0.00 41 1014.3
20260502163055 13 157 3.2 0.0 0.00 0.00 0.00 52 1015.3
20260502161553 12 157 3.2 0.0 0.00 0.00 0.00 57 1015.5
20260502151547 10 153 1.6 0.0 0.00 0.00 0.00 60 1016.1
20260502123033 4 30 0.0 0.0 0.00 0.00 0.00 72 1015.7
20260502121543 5 30 1.6 0.0 0.00 0.00 0.00 72 1015.7
20260502114533 4 30 0.0 0.0 0.00 0.00 0.00 72 1015.7
20260502113031 5 30 0.0 0.0 0.00 0.00 0.00 69 1015.8
20260502111529 6 30 0.0 0.0 0.00 0.00 0.00 67 1015.6
20260502110028 6 30 3.2 0.0 0.00 0.00 0.00 65 1015.6
20260502104540 6 30 3.2 0.0 0.00 0.00 0.00 68 1015.5
20260502103027 5 30 1.6 0.0 0.00 0.00 0.00 71 1015.2
20260502101524 4 30 0.0 0.0 0.00 0.00 0.00 75 1015.2
20260502091520 5 30 0.0 0.0 0.00 0.00 0.00 70 1015.1
20260502070042 11 30 1.6 0.0 0.00 0.00 0.00 51 1014.6
20260502064547 11 30 6.4 0.0 0.00 0.00 0.00 50 1014.4
20260502063039 11 9 3.2 0.0 0.00 0.00 0.00 51 1014.2
20260502061539 11 19 6.4 0.0 0.00 0.00 0.00 50 1014.1
20260502060034 11 17 8.0 0.0 0.00 0.00 0.00 50 1014.0
20260502054520 11 18 8.0 0.0 0.00 0.00 0.00 49 1014.1
20260502053014 11 17 8.0 0.0 0.00 0.00 0.00 48 1014.0
20260502051531 12 23 3.2 0.0 0.00 0.00 0.00 48 1013.9
20260502050011 12 19 4.8 0.0 0.00 0.00 0.00 47 1013.8
20260502044611 12 23 6.4 0.0 0.00 0.00 0.00 46 1013.7
20260502043111 12 14 4.8 0.0 0.00 0.00 0.00 48 1013.8
20260502041506 12 5 1.6 0.0 0.00 0.00 0.00 47 1013.5
20260502040022 12 5 0.0 0.0 0.00 0.00 0.00 48 1013.5
20260502034536 13 311 0.0 0.0 0.00 0.00 0.00 48 1013.4
20260502033028 13 311 0.0 0.0 0.00 0.00 0.00 48 1013.2
20260502031521 13 297 0.0 0.0 0.00 0.00 0.00 50 1013.0
20260502030020 13 269 0.0 0.0 0.00 0.00 0.00 51 1012.7
20260502024525 15 269 0.0 0.0 0.00 0.00 0.00 48 1012.6
20260502023019 16 269 0.0 0.0 0.00 0.00 0.00 44 1012.3
20260502021519 18 269 0.0 0.0 0.00 0.00 0.00 37 1012.3